www.pogodaiklimat.ru

Погода и климат >> Архив погоды >> Норвегия >> Несбен-Тодокк


ПОГОДА в Несбен-Тодокке

  • Прогноз погоды в Несбен-Тодокке
  • Монитор погоды в Несбен-Тодокке

АРХИВ ПОГОДЫ в Несбен-Тодокке

Время (UTC), дата Ветер
(напр.,м/с)
 
Видим.   Явления Облачность Т
(С)
Тd
(С)
f
(%)
Тe
(С)
Тes
(С)
Комфортность P
(гПа)
Po
(гПа)
Тmin
(С)
Tmax
(С)
R
(мм)
R24
(мм)
S
(см)
22 10.06 С 1
{3}
н/о н/о +9.4 +3.0 64 +9 +9 1020.7 1000.4
23 10.06 штиль 0
{1}
н/о н/о +6.9 +3.0 76 +6 +6 1021.5 1001.0
00 11.06 С 2
{7}
н/о н/о +7.2 +2.9 74 +5 +5 1021.8 1001.3
01 11.06 С 1
{3}
н/о н/о +6.6 +2.5 75 +6 +6 1022.2 1001.6
02 11.06 С 1
{2}
н/о н/о +5.7 +2.5 80 +5 +5 1022.5 1001.9
03 11.06 штиль 0
{2}
н/о н/о +4.7 +2.1 83 +4 +4 1023.3 1002.6
04 11.06 З 1
{1}
н/о н/о +4.5 +2.7 88 +3 +3 1024.0 1003.2
05 11.06 В 1
{1}
н/о н/о +6.3 +4.1 86 +5 +5 1023.8 1003.2
06 11.06 ЮВ 1
{3}
>70 км 3/0
[Ci sp]
+8.8 +3.2 68 +8 +13 1023.4 1003.0 +4.3 +18.1
07 11.06 В 1
{2}
н/о н/о +12.4 +3.4 54 +13 +13 1023.1 1002.9
08 11.06 штиль 0
{2}
н/о н/о +12.7 +4.4 57 +12 +12 1022.8 1002.7
09 11.06 СЗ 1
{2}
н/о н/о +15.9 +4.3 46 +17 +17 1022.1 1002.2
10 11.06 ЮВ 2
{4}
н/о н/о +19.7 +4.2 36 +21 +21 комфорт 1021.4 1001.7
11 11.06 В 2
{6}
н/о н/о +20.7 +3.9 33 +22 +22 комфорт 1021.1 1001.5
12 11.06 ЮВ 2
{8}
>70 км 6/6 1000 м
[Cu Sc]
+20.4 +3.2 32 +21 +27 комфорт 1020.9 1001.3
13 11.06 ЮВ 3
{7}
н/о н/о +20.0 +2.4 31 +21 +21 комфорт 1021.0 1001.4
14 11.06 Ю 4
{9}
н/о н/о +21.6 +2.4 28 +21 +21 комфорт 1020.6 1001.1
15 11.06 ЮВ 3
{9}
>70 км 6/4 1000 м
[Cu Sc Cc]
+21.4 +2.7 29 +21 +25 комфорт 1020.7 1001.2
16 11.06 Ю 3
{9}
н/о н/о +20.9 +3.2 31 +22 +22 комфорт 1020.8 1001.2
17 11.06 ЮВ 3
{8}
н/о н/о +20.2 +3.5 33 +21 +21 комфорт 1021.0 1001.4
18 11.06 ЮВ 1
{9}
>70 км 10/8 1000 м
[Sc As trans]
+19.7 +5.7 40 +21 +22 комфорт 1021.2 1001.6 +8.8 +22.3
19 11.06 В 1
{4}
н/о н/о +18.4 +8.9 54 +20 +20 1021.5 1001.8
20 11.06 СВ 1
{2}
н/о н/о +17.2 +7.3 52 +18 +18 1021.8 1002.0
21 11.06 штиль 0
{3}
н/о н/о +15.0 +8.5 65 +15 +15 1022.4 1002.4
22 11.06 ЮВ 5
{9}
н/о н/о +14.7 +8.7 67 +13 +13 1024.1 1004.1
23 11.06 В 2
{7}
н/о н/о +12.6 +9.6 82 +12 +12 1025.5 1005.3
00 12.06 В 2
{9}
н/о н/о +11.8 +9.5 86 +11 +11 1025.9 1005.6 1
01 12.06 н/о
02 12.06 В 2
{4}
н/о н/о +11.0 +8.8 86 +10 +10 1025.9 1005.6
03 12.06 В 1
{3}
н/о н/о +10.3 +8.7 90 +10 +10 1026.2 1005.8
04 12.06 штиль 0
{1}
н/о н/о +10.5 +9.1 91 +10 +10 1026.0 1005.6
05 12.06 В 1
{1}
н/о н/о +10.6 +9.2 91 +10 +10 1025.7 1005.3
06 12.06 штиль 0
{5}
2000 м слаб. дождь 10/5 300 м
[Frnb As op]
+10.8 +9.4 91 +10 +11 1025.5 1005.2 +10.3 +19.9 4
07 12.06 штиль 0
{1}
н/о н/о +11.0 +9.3 89 +10 +10 1025.1 1004.8
08 12.06 штиль 0
{2}
н/о н/о +11.3 +9.6 89 +11 +11 1025.1 1004.8
09 12.06 СВ 2
{3}
н/о н/о +11.4 +7.5 77 +10 +10 1025.0 1004.7
10 12.06 С 1
{6}
н/о н/о +11.7 +8.2 79 +12 +12 1024.0 1003.8
11 12.06 С 2
{6}
н/о н/о +11.0 +6.2 72 +10 +10 1023.8 1003.5
12 12.06 СЗ 1
{6}
2500 м слаб. дождь 10/4 600 м
[Frnb As op]
+11.1 +5.2 67 +11 +13 1023.6 1003.3 0.6
13 12.06 СЗ 1
{2}
н/о н/о +11.7 +6.0 68 +12 +12 1023.2 1003.0
14 12.06 З 1
{3}
н/о н/о +11.3 +7.0 75 +11 +11 1022.6 1002.4
15 12.06 Ю 1
{3}
10 км осадки на расстоянии 10/1 600 м
[Frnb As op]
+11.2 +7.3 77 +11 +13 1022.0 1001.8
16 12.06 н/о
17 12.06 Ю 1
{3}
н/о н/о +10.7 +6.5 75 +10 +10 1021.3 1001.0
18 12.06 СВ 1
{4}
4500 м слаб. дождь 10/3 600 м
[Frnb Ac As]
+10.3 +7.2 81 +10 +10 1020.6 1000.3 +10.3 +12.0 0.7
19 12.06 СВ 2
{4}
н/о н/о +10.5 +5.1 69 +9 +9 1020.1 999.8
20 12.06 ЮВ 1
{2}
н/о н/о +9.4 +6.8 84 +9 +9 1019.8 999.5
21 12.06 штиль 0
{2}
н/о н/о +9.2 +7.0 86 +8 +8 1019.5 999.2
22 12.06 В 1
{1}
н/о н/о +9.0 +7.1 88 +8 +8 1018.7 998.4
23 12.06 Ю 1
{1}
н/о н/о +8.8 +7.4 91 +8 +8 1017.9 997.6
00 13.06 ЮВ 1
{4}
н/о н/о +8.7 +7.3 91 +8 +8 1016.6 996.3
01 13.06 СВ 1
{2}
н/о н/о +8.4 +7.0 91 +8 +8 1015.6 995.3
02 13.06 СЗ 1
{2}
н/о н/о +8.4 +6.9 90 +8 +8 1014.4 994.1
03 13.06 Ю 2
{3}
н/о н/о +8.0 +6.8 92 +6 +6 1012.8 992.5 4
04 13.06 В 1
{3}
н/о н/о +8.1 +6.9 92 +7 +7 1012.2 991.9
05 13.06 В 1
{2}
н/о н/о +8.3 +7.1 92 +7 +7 1011.4 991.2
06 13.06 С 1
{3}
1500 м слаб. дождь 10/6 200 м
[Frnb As op]
+8.4 +7.2 92 +8 +8 1011.3 991.1 +7.9 +10.5 6
07 13.06 ЮВ 1
{1}
н/о н/о +8.6 +7.1 90 +8 +8 1011.4 991.2
08 13.06 штиль 0
{1}
н/о н/о +9.4 +7.7 89 +9 +9 1011.3 991.1
09 13.06 В 1
{2}
н/о н/о +9.8 +7.8 87 +9 +9 1011.3 991.2
10 13.06 ЮВ 1
{2}
н/о н/о +10.5 +7.7 83 +10 +10 1011.6 991.5
11 13.06 Ю 1
{2}
н/о н/о +11.4 +7.7 78 +11 +11 1011.7 991.7
12 13.06 СЗ 1
{2}
2000 м местами туман поземный {дождь} 10/3 300 м
[Frnb As op]
+12.1 +8.4 78 +12 +14 1011.5 991.5
13 13.06 СВ 1
{2}
н/о н/о +12.2 +9.4 83 +12 +12 1012.1 992.1
14 13.06 ЮВ 1
{2}
н/о н/о +13.4 +9.7 78 +14 +14 1012.1 992.2
15 13.06 ЮВ 2
{4}
4000 м местами туман поземный 10/3 600 м
[Frnb As trans]
+13.9 +10.1 78 +13 +16 1012.1 992.2
16 13.06 В 1
{4}
н/о н/о +13.4 +10.0 80 +14 +14 1012.8 992.9
17 13.06 ЮВ 1
{3}
н/о н/о +13.5 +10.9 84 +14 +14 1013.1 993.2
18 13.06 ЮВ 2
{6}
18 км 6/1 600 м
[Frnb Ac inh]
+14.4 +10.4 77 +14 +15 1013.6 993.7 +8.4 +14.9 0.4
19 13.06 В 1
{4}
н/о н/о +14.0 +10.6 80 +14 +14 1014.1 994.2
20 13.06 ЮВ 2
{4}
н/о н/о +12.8 +10.4 85 +12 +12 1014.7 994.7
21 13.06 С 1
{3}
н/о н/о +11.3 +9.9 91 +11 +11 1015.9 995.8
22 13.06 штиль 0
{3}
н/о н/о +11.3 +9.9 91 +11 +11 1016.4 996.3
23 13.06 В 1
{2}
н/о н/о +10.0 +8.8 92 +9 +9 1016.9 996.7
00 14.06 штиль 0
{4}
н/о н/о +10.3 +9.2 93 +10 +10 1017.2 997.0
01 14.06 штиль 0
{1}
н/о н/о +10.4 +9.3 93 +10 +10 1017.0 996.8
02 14.06 СЗ 1
{2}
н/о н/о +10.2 +9.1 93 +10 +10 1017.6 997.4
03 14.06 СЗ 1
{2}
н/о н/о +10.4 +9.3 93 +10 +10 1017.8 997.6
04 14.06 В 1
{2}
н/о н/о +10.8 +9.7 93 +10 +10 1018.1 997.9
05 14.06 штиль 0
{2}
н/о н/о +11.6 +10.4 92 +11 +11 1018.2 998.1
06 14.06 штиль 0
{2}
2000 м слаб. ливневой дождь 10/10 300 м
[Cb calv]
+11.9 +10.1 89 +11 +11 1018.3 998.2 +9.9 +14.4 1
07 14.06 ЮВ 1
{3}
н/о н/о +14.9 +10.7 76 +15 +15 1018.0 998.1
08 14.06 ЮВ 2
{3}
н/о н/о +16.0 +11.4 74 +16 +16 1017.6 997.8
09 14.06 ЮВ 2
{5}
н/о н/о +16.9 +11.0 68 +17 +17 1017.9 998.1
10 14.06 ЮВ 3
{6}
н/о н/о +16.0 +9.7 66 +16 +16 1018.5 998.7
11 14.06 В 2
{6}
н/о н/о +16.6 +9.8 64 +17 +17 1018.6 998.8
12 14.06 ЮВ 4
{7}
15 км 8/3 600 м
[Frnb Ac inh]
+17.0 +10.2 64 +17 +20 1018.5 998.7
13 14.06 ЮВ 3
{7}
н/о н/о +16.6 +10.0 65 +16 +16 1018.6 998.8
14 14.06 ЮВ 4
{7}
н/о н/о +17.4 +9.6 60 +17 +17 1017.9 998.2
15 14.06 ЮВ 3
{6}
55 км 8/3 1000 м
[Sc Ac inh Ci]
+17.6 +10.2 62 +18 +21 1017.4 997.7
16 14.06 ЮВ 3
{6}
н/о н/о +17.4 +10.5 64 +17 +17 1017.4 997.7
17 14.06 ЮВ 3
{6}
н/о н/о +17.4 +10.8 65 +17 +17 1017.3 997.6
18 14.06 В 2
{7}
>70 км 9/9 1000 м
[Cu Sc]
+16.7 +11.0 69 +17 +17 1017.4 997.6 +11.9 +18.9
19 14.06 ЮВ 2
{5}
н/о н/о +16.3 +11.3 72 +16 +16 1017.5 997.7
20 14.06 ЮВ 4
{5}
н/о н/о +15.7 +10.7 72 +15 +15 1018.2 998.3
21 14.06 С 1
{6}
н/о н/о +14.4 +10.8 79 +15 +15 1018.6 998.6
22 14.06 штиль 0
{2}
н/о н/о +12.3 +10.2 87 +12 +12 1019.1 999.0
23 14.06 В 1
{2}
н/о н/о +10.7 +8.8 88 +10 +10 1019.7 999.5
00 15.06 штиль 0
{6}
н/о н/о +9.6 +8.4 92 +9 +9 1020.0 999.7
01 15.06 В 1
{2}
н/о н/о +8.8 +7.7 93 +8 +8 1020.3 999.9
02 15.06 штиль 0
{1}
н/о н/о +7.8 +6.7 93 +7 +7 1020.6 1000.1
03 15.06 З 1
{2}
н/о н/о +7.5 +6.4 93 +6 +6 1020.7 1000.2
04 15.06 штиль 0
{1}
н/о н/о +7.2 +6.2 93 +6 +6 1021.1 1000.6
05 15.06 штиль 0
{1}
н/о н/о +8.5 +7.6 94 +8 +8 1020.8 1000.4
06 15.06 В 1
{2}
>70 км ясно +11.7 +8.7 82 +12 +16 1020.3 1000.1 +6.9 +16.7
07 15.06 СВ 1
{2}
н/о н/о +14.4 +9.2 71 +15 +15 1019.6 999.6
08 15.06 В 1
{2}
н/о н/о +17.3 +8.5 56 +18 +18 1019.1 999.3
09 15.06 СВ 1
{2}
н/о н/о +20.1 +7.5 44 +22 +22 комфорт 1018.2 998.6
10 15.06 ЮВ 2
{3}
н/о н/о +21.6 +6.7 38 +22 +22 комфорт 1017.6 998.1
11 15.06 ЮВ 3
{5}
н/о н/о +22.4 +6.2 35 +23 +23 комфорт 1016.8 997.4
12 15.06 Ю 3
{6}
>70 км 1/1 1500 м
[Cu hum]
+23.4 +5.3 31 +24 +34 комфорт 1016.1 996.8
13 15.06 ЮВ 3 н/о н/о +24.3 +7.0 33 +24 +24 комфорт 1015.3 996.1
14 15.06 ЮВ 3
{6}
н/о н/о +24.7 +5.0 28 +24 +24 комфорт 1014.7 995.5
15 15.06 Ю 3
{6}
>70 км 1/1 1500 м
[Cu hum]
+25.2 +4.4 26 +25 +31 комфорт 1014.5 995.3
16 15.06 ЮВ 2
{5}
н/о н/о +25.2 +5.4 28 +25 +25 комфорт 1013.8 994.7
17 15.06 ЮВ 2
{4}
н/о н/о +24.4 +6.2 31 +24 +24 комфорт 1013.4 994.2
18 15.06 ЮВ 3
{6}
>70 км 1/0
[Ci]
+23.3 +6.6 34 +24 +25 комфорт 1013.3 994.0 +11.7 +25.8
19 15.06 ЮВ 3
{4}
н/о н/о +22.4 +6.2 35 +23 +23 комфорт 1013.4 994.1
20 15.06 ЮВ 2
{4}
н/о н/о +19.6 +9.2 51 +21 +21 комфорт 1013.8 994.3
21 15.06 С 1
{3}
н/о н/о +16.7 +10.3 66 +18 +18 1014.2 994.5
22 15.06 СВ 1
{2}
н/о н/о +14.7 +10.5 76 +15 +15 1014.1 994.3
23 15.06 штиль 0
{2}
н/о н/о +13.3 +9.7 79 +13 +13 1014.5 994.6
00 16.06 штиль 0
{4}
н/о н/о +12.8 +10.0 83 +12 +12 1014.7 994.7
01 16.06 С 1
{2}
н/о н/о +12.0 +9.6 85 +12 +12 1014.4 994.4
02 16.06 штиль 0
{1}
н/о н/о +12.6 +10.0 84 +12 +12 1014.0 994.0
03 16.06 ЮВ 1
{1}
н/о н/о +12.7 +10.4 86 +13 +13 1014.0 994.0
04 16.06 СВ 1
{1}
н/о н/о +12.5 +10.7 89 +12 +12 1013.5 993.5
05 16.06 Ю 1
{1}
н/о н/о +12.9 +11.1 89 +13 +13 1013.3 993.4
06 16.06 З 1
{2}
>70 км 10/0 2000 м
[As trans]
+13.6 +11.0 84 +14 +16 1013.4 993.5 +11.8 +23.3
07 16.06 З 1
{1}
н/о н/о +14.4 +10.6 78 +15 +15 1013.5 993.6
08 16.06 Ю 1
{2}
н/о н/о +15.0 +10.8 76 +16 +16 1013.6 993.8
09 16.06 ЮЗ 1
{1}
н/о н/о +15.6 +11.8 78 +16 +16 1013.6 993.8
10 16.06 ЮВ 1
{2}
н/о н/о +15.5 +11.9 79 +16 +16 1013.5 993.7
11 16.06 З 1
{3}
н/о н/о +15.9 +12.8 82 +17 +17 1013.5 993.7
12 16.06 ЮВ 1
{3}
4000 м слаб. дождь 10/4 600 м
[Frnb As op]
+16.2 +12.4 78 +17 +19 1013.6 993.9 0.4
13 16.06 штиль 0
{2}
н/о н/о +16.5 +12.5 77 +16 +16 1013.4 993.7
14 16.06 В 1
{2}
н/о н/о +16.3 +11.9 75 +17 +17 1013.5 993.8
15 16.06 ЮВ 3
{5}
20 км 10/1 600 м
[Frnb Ac As]
+16.4 +12.0 75 +16 +18 1013.4 993.7
16 16.06 Ю 1
{5}
н/о н/о +16.5 +12.7 78 +17 +17 1013.3 993.6
17 16.06 З 1
{2}
н/о н/о +16.9 +12.5 75 +18 +18 1012.9 993.2
18 16.06 Ю 1
{5}
30 км 8/1 600 м
[Cu hum Ac inh Ci sp]
+17.5 +12.4 72 +19 +20 1012.6 993.0 +13.6 +18.5 0.3
19 16.06 ЮВ 4
{6}
н/о н/о +17.1 +12.4 74 +17 +17 1012.6 992.9
20 16.06 В 3
{6}
н/о н/о +16.2 +12.0 76 +16 +16 1012.5 992.8
21 16.06 В 1
{4}
н/о н/о +14.3 +12.0 86 +15 +15 1012.9 993.1
22 16.06 СЗ 1
{2}
н/о н/о +12.8 +11.2 90 +13 +13 1013.4 993.4
23 16.06 штиль 0
{3}
н/о н/о +13.3 +11.4 88 +13 +13 1013.8 993.9
00 17.06 штиль 0
{6}
н/о н/о +12.7 +10.6 87 +12 +12 1014.1 994.1
01 17.06 В 1
{2}
н/о н/о +12.1 +10.7 91 +12 +12 1014.4 994.4
02 17.06 ЮВ 1
{1}
н/о н/о +11.6 +10.4 92 +11 +11 1014.6 994.5
03 17.06 СЗ 1
{2}
н/о н/о +11.3 +9.9 91 +11 +11 1014.7 994.6
04 17.06 н/о
05 17.06 В 1
{2}
н/о н/о +11.1 +8.5 84 +11 +11 1015.0 994.9
06 17.06 С 1
{2}
>70 км ясно +13.9 +8.5 70 +14 +19 1014.5 994.6 +9.6 +17.6 0.2
07 17.06 СЗ 1
{3}
н/о н/о +16.3 +7.5 56 +17 +17 1014.0 994.3
08 17.06 ЮВ 1
{4}
н/о н/о +18.9 +5.4 41 +20 +20 1013.4 993.9
09 17.06 С 2
{4}
н/о н/о +19.5 +2.4 32 +20 +20 1013.0 993.5
10 17.06 С 2
{5}
н/о н/о +20.8 +1.2 27 +22 +22 комфорт 1012.8 993.4
11 17.06 СЗ 1
{4}
н/о н/о +21.2 +2.0 28 +21 +21 комфорт 1012.2 992.8
12 17.06 ЮЗ 1
{5}
>70 км 5/5 1000 м
[Cu Sc]
+22.1 +3.3 29 +22 +30 комфорт 1012.0 992.7
13 17.06 ЮЗ 2
{9}
н/о н/о +21.7 +4.8 33 +22 +22 комфорт 1011.9 992.6
14 17.06 ЮВ 4
{9}
н/о н/о +22.2 +4.3 31 +22 +22 комфорт 1011.9 992.6
15 17.06 ЮВ 5
{10}
>70 км 8/8 1000 м
[Sc diur, vesp]
+20.8 +5.6 37 +22 +23 комфорт 1011.8 992.4
16 17.06 Ю 3 н/о н/о +20.7 +6.3 39 +22 +22 комфорт 1011.5 992.1
17 17.06 ЮВ 3
{10}
н/о н/о +20.2 +6.9 42 +21 +21 комфорт 1011.4 992.0
18 17.06 ЮВ 4
{10}
>70 км 8/5 1000 м
[Cu med, cong Ci sp]
+19.6 +7.4 45 +20 +21 1011.5 992.0 +13.9 +23.2
19 17.06 ЮВ 2
{6}
н/о н/о +18.7 +8.4 51 +20 +20 1011.6 992.1
20 17.06 ЮВ 2
{6}
н/о н/о +18.0 +8.3 53 +19 +19 1012.0 992.4
21 17.06 штиль 0
{6}
н/о н/о +16.0 +7.8 58 +16 +16 1012.4 992.7
22 17.06 С 1
{4}
н/о н/о +13.3 +7.8 69 +14 +14 1012.7 992.8

 

Местоположение метеостанции Несбен-Тодокк (Норвегия): широта 60.57 долгота 9.13 высота над уровнем моря 167 м.

В архиве по умолчанию представлена погода в Несбен-Тодокке за последнюю неделю. Архивные данные за месяц целиком и за предыдущие месяцы, начиная с января 2011 года, Вы можете получить, выбрав интересующий диапазон дат из раскрывающегося списка и нажав кнопку "Ввод!".


*Определитесь, кто Вы:
робот инопланетянин человек

Внимание! Время в таблицах - всемирное. Для получения местного времени необходимо прибавить поправку, которая равна 1 ч.

Смотрите также архив погоды в соседних городах и на ближайших метеорологических станциях:

Погода в Гульсвике (Норвегия) (33 км)
Погода в Гейло аэропорту (Норвегия) (38 км)
Погода в Хемседале II (Норвегия) (44 км)
Погода в Хемседале (Норвегия) (47 км)
Погода в Фагернесе (Норвегия) (47 км)
Погода в Фагернес аэропорту (Норвегия) (50 км)
Погода в Гейло (Норвегия) (51 км)
Погода в Веггли (Норвегия) (58 км)
Погода в Локен и Волбу (Норвегия) (61 км)
Погода в Вест-Торпе (Норвегия) (63 км)

Пояснения к столбцам:

Ветер - указаны скорость ветра в м/с - средняя за 10 мин, порывы в срок и между сроками (в фигурных скобках) и направление, откуда дует ветер: С - северный, СВ - северо-восточный, В - восточный, ЮВ - юго-восточный, Ю - южный, ЮЗ - юго-западный, З - западный, СЗ - северо-западный.
Видимость - горизонтальная дальность видимости в метрах или километрах. При видимости от 1 до 10 км при отсутствии осадков обычно наблюдается дымка, при ухудшении видимости до 1 км и менее - туман. В сухую погоду видимость может ухудшаться дымом, пылью или мглою.
Явления - указаны атмосферные явления, наблюдавшиеся в срок или в последний час перед сроком; фигурными скобками обозначены явления, наблюдавшиеся между сроками (за 1-3 часа до срока); квадратными скобками обозначены град или гололедные отложения с указанием их диаметра в мм.
Облачность - указаны через наклонную черту общая и нижняя облачность в баллах и высота нижней границы облаков в метрах; квадратными скобками обозначены формы облаков: Ci - перистые, Cs - перисто-слоистые, Cc - перисто-кучевые, Ac - высококучевые, As - высокослоистые, Sc - слоисто-кучевые, Ns - слоисто-дождевые, Cu - кучевые, Cb - кучево-дождевые. Подробнее классификацию облаков см. в Атласе облаков (PDF).
T - Температура воздуха - температура, измеренная на высоте 2 м над землей.
Td - Температура точки росы - температура, при понижении до которой содержащийся в воздухе водяной пар достигнет насыщения.
f - Относительная влажность воздуха - влажноcть воздуха, измеренная на высоте 2 м над землей.
Te - Эффективная температура - температура, которую ощущает одетый по сезону человек в тени. Характеристика душности погоды. При расчете учитывается влияние влажности воздуха и скорости ветра на теплоощущения человека.
Tes - Эффективная температура на солнце - температура, которую ощущает человек, с поправкой на солнечный нагрев. Характеристика знойности погоды. Зависит от высоты солнца над горизонтом, облачности и скорости ветра. Ночью, в пасмурную погоду, а также при ветре 12 м/с и более поправка равна нулю.
P - Атмосферное давление - приведенное к уровню моря атмосферное давление.
Po - Атмосферное давление - измеренное на уровне метеостанции атмосферное давление.
Tmin - Минимальная температура - минимум температуры воздуха на высоте 2 м над землей.
Tmax - Максимальная температура - максимум температуры воздуха на высоте 2 м над землей.
R - Количество осадков - Количество выпавших осадков за период времени, мм. При наведении курсора мыши на число - период времени, за который выпало указанное количество осадков.
R24 - Количество осадков - Количество выпавших осадков за 24 часа, мм.
S - Снежный покров - Высота снежного покрова, см. При наведении курсора мыши на число - состояние снежного покрова и степень покрытия местности в баллах.